Overview Statistics Trail Chart Weather Telemetry Raw packets
 

This is the latest recevied weather packets stored in our database for station/object SV9TNF-52. If no packets are shown the sender has not sent any weather packets the latest 10 day(s).

<< 6 7 8 9 10 11 12 >>
Time Temp. Humidity Pressure Rain* Wind** Luminosity Snow
1788612163 29.44° C 54% 1021.7 hPa 0 mm 2.68 m/s, 337° - -
1788611863 28.89° C 55% 1021.7 hPa 0 mm 10.73 m/s, 255° - -
1788611563 28.89° C 56% 1021.7 hPa 0 mm 7.6 m/s, 36° - -
1788611263 29.44° C 54% 1021.7 hPa 0 mm 8.05 m/s, 351° - -
1788610963 28.89° C 54% 1021.7 hPa 0 mm 9.83 m/s, 42° - -
1788610663 28.33° C 55% 1021.7 hPa 0 mm 7.6 m/s, 353° - -
1788610362 29.44° C 54% 1021.7 hPa 0 mm 8.05 m/s, 27° - -
1788610062 29.44° C 54% 1022 hPa 0 mm 9.83 m/s, 43° - -
1788609762 30° C 53% 1022 hPa 0 mm 5.81 m/s, 340° - -
1788609462 28.89° C 53% 1022 hPa 0 mm 14.31 m/s, 304° - -
1788609162 29.44° C 52% 1022 hPa 0 mm 6.71 m/s, 79° - -
1788608862 29.44° C 54% 1022 hPa 0 mm 9.83 m/s, 38° - -
1788608562 29.44° C 53% 1022 hPa 0 mm 9.83 m/s, 166° - -
1788608262 29.44° C 51% 1022 hPa 0 mm 10.28 m/s, 287° - -
1788607962 29.44° C 54% 1022 hPa 0 mm 9.83 m/s, 224° - -
1788607662 29.44° C 51% 1022 hPa 0 mm 6.71 m/s, 348° - -
1788607361 29.44° C 52% 1022 hPa 0 mm 8.94 m/s, 276° - -
1788607061 29.44° C 52% 1022 hPa 0 mm 8.05 m/s, 56° - -
1788606761 29.44° C 51% 1022 hPa 0 mm 11.62 m/s, 195° - -
1788606461 29.44° C 52% 1022 hPa 0 mm 9.39 m/s, 118° - -
1788606161 29.44° C 53% 1022 hPa 0 mm 10.28 m/s, 7° - -
1788605861 29.44° C 53% 1022 hPa 0 mm 7.15 m/s, 17° - -
1788605561 29.44° C 51% 1022 hPa 0 mm 16.09 m/s, 315° - -
1788605261 29.44° C 52% 1022.4 hPa 0 mm 12.52 m/s, 250° - -
1788604961 29.44° C 52% 1022.4 hPa 0 mm 7.15 m/s, 9° - -

* Rain latest hour (hover to see other rain measurements)
** Current wind speed in m/s (hover to see current wind gust speed)